Temperature
21 21 20 20 20 20 20 20 19 19 19 18 18 18 18 18 18 17 17 17 17 17 17 17 17 17 17 17 16 16 16 16 16 15 15 15 14 14 14 14 14 14 14
21 21 21 20 20 20 19 19 19 19 19 18 18 18 18 17 17 17 17 17 17 17 17 17 16 16 16 16 16 16 16 16 16 15 15 14 14 14 14 14 14 13 13
21 21 21 20 20 20 19 19 19 19 18 18 18 18 18 17 17 17 17 17 17 17 16 16 16 16 16 16 16 16 16 15 15 15 15 14 14 14 14 13 13 13 13
21 21 20 20 20 20 19 19 19 19 18 18 18 18 17 17 17 17 17 17 16 16 16 16 16 16 16 16 16 15 15 15 15 14 14 14 14 13 13 13 12 12 12
21 21 20 20 20 20 19 19 19 19 18 18 18 18 17 17 17 17 17 16 16 16 16 16 16 16 16 16 15 15 15 15 15 14 14 13 13 13 13 13 12 12 11
21 21 20 20 20 20 19 19 19 19 18 18 18 17 17 17 17 17 17 16 16 16 16 15 15 15 15 15 15 15 15 15 14 14 14 13 13 13 13 12 12 11 11
21 21 20 20 20 20 19 19 19 18 18 18 18 18 17 17 17 17 17 16 16 16 15 15 15 15 15 15 15 14 14 14 14 14 13 13 13 13 12 12 12 11 11
21 20 20 20 20 19 19 19 18 18 18 18 18 17 17 17 17 17 16 16 16 15 15 15 15 15 14 14 14 14 14 14 13 13 13 13 13 12 12 12 12 11 11
20 20 20 20 19 19 19 19 18 18 18 17 17 17 17 17 16 16 16 16 15 15 15 15 14 14 14 14 14 13 13 13 13 13 13 13 12 12 12 12 11 11 10
20 20 20 19 19 19 19 19 18 18 17 17 17 17 17 16 16 16 16 15 15 14 14 14 14 14 14 13 13 13 13 13 12 12 12 12 12 12 11 11 11 11 10
20 19 19 19 19 19 18 18 18 17 17 17 16 16 16 16 16 16 15 15 14 14 14 14 14 14 14 13 13 13 12 12 12 12 12 11 11 11 11 11 10 10 10
19 19 19 19 18 18 18 17 17 17 17 16 16 16 16 16 15 15 15 15 14 14 13 13 13 13 13 13 13 12 12 12 12 11 11 11 11 11 11 10 10 10 10
19 19 18 18 18 18 17 17 17 16 16 16 16 15 15 15 15 15 14 14 14 14 14 13 13 13 13 12 12 12 12 12 11 11 11 11 11 10 10 10 10 10 10
18 18 18 17 17 17 17 16 16 16 15 15 15 15 14 14 14 14 14 14 14 13 13 13 12 12 12 12 12 11 11 11 11 11 11 10 10 10 10 10 9 9 9
18 17 17 17 17 16 16 16 16 16 15 15 15 15 14 14 14 14 14 13 13 13 13 12 12 11 11 11 11 11 11 11 11 10 10 10 10 10 9 9 9 9 9
17 17 16 16 16 16 16 15 15 15 15 15 14 14 14 14 14 13 13 13 12 12 12 12 11 11 11 11 10 10 10 10 10 10 10 10 10 9 9 9 9 9 8
16 16 16 16 16 15 15 15 15 14 14 14 14 14 14 13 13 13 13 12 12 12 11 11 11 11 11 10 10 10 10 10 10 10 10 9 9 9 9 9 9 8 8
15 15 15 15 15 15 15 15 14 14 14 14 13 13 13 13 13 12 12 12 11 11 11 11 11 10 10 10 10 10 10 10 9 9 9 9 9 9 9 8 8 8 8
15 15 15 15 15 14 14 14 14 14 14 13 13 13 13 12 12 12 12 11 11 11 11 11 10 10 10 10 10 9 9 9 9 9 9 9 8 8 8 8 8 8 8
14 14 14 14 14 14 14 14 13 13 13 13 13 13 12 12 12 12 11 11 11 11 11 10 10 10 10 10 9 9 9 9 9 8 8 8 8 8 8 8 8 8 8
14 14 14 13 13 13 13 13 13 13 12 12 12 12 12 12 11 11 11 11 11 10 10 10 10 10 9 9 9 9 9 8 8 8 8 8 8 7 7 7 7 7 7
13 13 13 13 13 13 13 13 12 12 12 12 12 11 11 11 11 11 10 10 10 10 10 9 9 9 9 9 8 8 8 8 8 8 7 7 7 7 7 7 7 7 7
13 12 12 12 12 12 12 12 12 12 12 11 11 11 11 11 10 10 10 10 10 9 9 9 9 8 8 8 8 8 8 7 7 7 7 7 7 7 7 6 7 7 7
12 12 12 12 11 11 11 11 11 11 11 11 11 11 10 10 10 10 9 9 9 9 8 8 8 8 8 8 7 7 7 7 7 7 6 6 6 6 6 6 6 6 6
12 12 11 11 11 11 11 11 11 11 10 10 10 10 10 10 9 9 9 8 8 8 8 8 7 7 7 7 7 7 6 6 6 6 6 6 6 6 6 6 6 6 6
11 11 11 11 11 11 10 10 10 10 10 9 9 9 9 9 8 8 8 8 8 7 7 7 7 7 6 6 6 6 6 6 5 5 5 5 5 5 5 5 5 5 5
Wind_Speed
9 7 6 7 6 5 4 4 3 3 2 2 3 2 2 2 2 2 2 1 1 1 2 1 1 2 2 1 1 1 2 2 2 1 0 1 2 4 5 6 6 7 7
9 8 6 6 6 6 5 4 4 3 3 3 3 2 3 2 1 1 2 1 1 1 1 2 2 1 1 1 1 1 1 2 3 2 1 1 1 3 4 4 5 6 7
10 9 7 7 6 5 4 4 4 3 3 3 2 2 2 1 1 1 1 1 1 1 1 1 1 2 2 1 0 0 1 1 2 3 2 1 1 3 4 4 5 5 6
9 9 8 7 6 5 5 4 4 3 3 3 2 2 2 1 1 0 0 0 1 0 1 1 2 2 2 1 0 1 1 2 2 3 3 2 2 3 3 4 3 2 3
8 8 8 7 6 6 5 5 4 4 4 3 3 2 2 2 1 1 1 1 1 1 2 2 3 4 4 3 2 2 1 2 2 3 3 2 2 3 3 3 4 3 2
8 8 7 7 7 6 6 5 5 4 3 3 3 3 2 2 2 2 1 0 1 1 1 2 3 4 4 5 5 4 3 2 2 2 2 3 3 3 3 4 4 3 2
7 7 8 8 7 7 7 6 6 4 3 3 3 3 4 3 3 3 2 1 2 2 2 2 1 3 3 3 4 4 3 3 3 2 3 3 3 3 4 4 4 3 2
7 7 7 7 7 7 6 6 5 4 4 3 3 4 4 4 3 2 2 1 2 2 2 2 2 3 3 2 2 3 3 3 3 2 2 2 3 3 3 4 4 3 3
6 6 6 7 7 7 6 6 5 4 4 3 3 3 3 4 3 2 1 1 2 2 2 3 2 4 3 2 1 2 3 2 4 6 5 5 6 6 6 4 4 4 3
6 6 6 6 6 7 6 6 5 4 4 4 3 3 3 3 4 3 1 2 2 2 3 4 5 4 3 2 0 1 2 2 3 4 3 4 5 6 6 4 4 4 2
4 4 5 6 5 5 5 5 5 5 5 4 4 3 3 4 5 4 2 1 1 2 2 3 3 5 4 2 1 0 1 1 2 3 3 3 3 3 3 3 2 2 2
3 3 3 3 4 5 5 4 4 5 5 5 4 4 4 4 4 4 3 1 1 0 1 3 4 5 3 1 1 1 1 1 2 2 3 3 3 3 2 2 2 2 2
3 4 4 3 2 4 5 5 4 4 4 5 5 4 4 4 4 5 4 2 1 1 2 4 4 4 3 2 3 3 2 2 2 2 2 2 3 3 3 3 3 3 2
3 4 4 4 4 4 3 3 4 4 4 4 4 4 4 4 4 4 3 3 3 3 2 3 3 3 3 1 2 3 3 1 1 1 1 2 3 3 3 3 3 3 2
2 2 3 4 5 4 3 2 2 1 1 2 2 2 3 3 2 3 3 3 2 2 3 3 3 3 3 2 2 2 2 1 1 1 1 1 2 3 3 3 3 3 3
2 2 2 3 4 4 4 3 6 4 5 5 3 3 3 5 7 6 5 4 3 2 2 3 3 3 3 3 2 2 2 2 1 1 2 2 2 3 3 3 3 3 3
1 1 1 2 2 3 3 3 3 2 4 4 4 5 4 6 6 6 4 3 2 3 2 3 2 2 2 2 2 2 2 2 2 2 2 2 2 2 2 2 3 3 3
0 1 2 2 2 3 2 2 3 4 3 2 2 3 5 6 5 5 4 3 2 3 3 3 2 2 1 1 1 1 1 1 2 2 2 2 2 2 2 2 3 3 3
0 0 0 0 1 1 2 2 2 3 3 3 3 3 4 4 4 4 5 3 3 3 3 3 3 2 2 1 1 1 1 1 1 1 2 2 2 2 2 2 2 4 4
1 1 1 1 1 1 2 2 2 2 2 3 3 3 4 4 3 4 4 3 3 2 2 2 1 1 1 1 1 1 2 1 1 2 2 2 2 2 3 3 3 3 4
0 1 1 1 1 1 1 2 2 2 1 1 1 3 4 4 3 3 3 3 2 2 1 1 1 1 1 1 1 2 2 1 1 1 2 2 2 2 3 3 3 3 3
0 0 0 0 0 1 0 1 1 1 2 2 2 2 3 2 2 1 2 1 1 1 1 1 0 0 0 1 0 1 1 1 1 2 2 2 2 2 3 3 3 3 3
1 0 0 0 0 0 1 1 1 1 1 2 2 2 2 1 1 1 1 1 1 0 1 1 1 1 2 3 3 2 1 2 2 2 2 3 3 3 3 3 4 4 4
1 1 1 1 1 1 1 1 1 1 1 2 2 2 2 2 1 1 1 2 1 1 1 2 2 3 4 3 3 2 2 3 3 3 3 3 3 3 3 3 4 5 5
1 1 1 1 1 1 1 1 1 2 2 2 2 2 2 2 2 2 1 1 1 1 2 2 2 3 4 4 5 5 5 5 5 5 4 3 4 4 5 6 5 5 5
1 1 1 2 2 2 2 2 2 2 3 3 3 3 3 3 3 2 2 2 2 2 3 3 4 4 4 4 5 6 6 6 6 7 6 4 4 5 6 6 7 6 6
Wind_Direction
177 180 179 175 185 185 192 198 200 216 207 199 201 206 214 225 236 240 253 242 236 266 297 287 264 286 293 270 242 235 214 191 202 235 89 125 116 117 113 107 104 101 102
175 174 177 174 178 185 189 189 194 203 211 205 206 208 218 216 220 249 272 282 279 282 305 313 301 285 293 288 281 262 208 165 169 178 179 146 131 140 132 125 114 104 103
175 174 176 179 181 185 187 180 184 193 196 191 187 190 216 199 178 216 271 315 299 290 302 312 335 356 5 9 350 87 127 135 135 158 172 158 149 142 121 108 101 108 112
173 176 175 180 181 180 182 177 176 182 184 180 174 184 181 165 136 21 255 235 252 309 34 47 54 50 35 358 23 76 104 122 145 152 147 154 146 141 136 136 120 109 110
170 174 175 176 173 174 178 170 167 181 185 169 178 177 164 143 86 41 301 208 167 135 92 81 78 79 69 57 64 79 108 130 150 146 150 152 151 158 161 157 142 136 111
169 175 171 172 172 172 170 164 167 175 171 168 169 147 118 95 81 67 7 17 91 102 111 114 125 103 95 93 94 98 121 153 161 164 167 167 169 165 155 155 147 149 151
172 173 172 173 171 168 174 169 171 172 168 160 153 135 113 100 93 87 64 33 94 93 97 85 75 80 90 99 116 119 99 108 140 158 168 176 168 165 170 168 161 160 154
175 175 172 171 170 167 168 164 161 161 164 161 157 150 138 128 122 100 58 122 109 105 96 100 98 86 59 64 111 108 89 74 99 130 141 147 141 149 168 160 147 131 125
176 178 172 172 169 168 171 165 159 159 162 168 157 150 142 135 143 131 17 176 138 131 117 85 88 101 62 40 111 126 117 97 84 94 97 125 134 146 153 140 148 154 155
179 176 169 167 172 173 170 165 162 163 168 162 151 149 148 141 153 157 215 232 172 149 123 103 77 87 85 43 22 151 145 128 112 105 104 127 144 157 169 173 171 170 162
157 159 165 167 172 167 163 162 159 166 166 161 157 156 151 142 152 158 167 241 225 188 162 136 116 109 96 67 34 88 147 157 151 149 143 141 143 150 170 178 176 178 176
143 141 145 160 176 168 158 160 167 170 170 172 174 174 165 154 145 158 159 169 306 321 116 116 134 142 133 131 144 133 118 156 182 169 157 153 156 159 164 164 170 169 165
154 154 156 156 156 147 154 163 170 177 188 190 187 187 182 158 143 145 160 162 119 83 67 94 129 162 175 190 188 196 200 227 207 183 171 165 159 158 156 156 158 163 172
157 158 162 159 144 137 145 163 171 187 205 202 192 188 180 165 154 160 167 167 149 146 144 137 162 199 238 225 183 213 226 234 216 188 174 162 154 160 174 175 183 187 192
148 157 169 162 147 140 133 106 157 145 190 210 207 189 179 165 144 140 161 168 184 165 165 176 194 194 201 197 193 205 224 208 236 238 192 184 176 177 187 190 192 196 204
139 156 174 164 156 156 149 122 63 81 74 70 71 96 89 114 128 123 122 115 118 127 181 213 208 208 208 208 206 203 201 214 230 231 212 209 208 200 197 198 197 208 217
160 173 191 172 154 155 161 165 158 113 79 68 79 98 121 135 134 137 137 124 130 143 211 227 223 226 226 220 215 213 211 206 209 217 218 215 215 216 203 204 211 223 223
150 179 190 188 175 169 174 181 178 175 166 151 138 153 163 165 160 159 152 148 183 203 220 221 224 212 215 236 242 243 242 201 202 221 224 221 214 218 224 223 219 226 235
174 199 207 194 185 181 179 185 190 182 169 159 151 161 180 175 166 177 175 214 223 214 216 224 224 217 220 224 249 252 250 247 233 226 228 225 222 230 241 244 235 232 243
160 165 192 196 197 200 191 194 193 177 167 169 171 160 153 171 185 186 199 223 235 238 235 231 227 217 205 195 226 253 251 240 230 232 234 226 233 240 244 247 244 240 240
43 140 178 194 208 215 199 189 177 172 177 182 163 142 156 190 192 177 178 204 222 250 264 247 236 255 230 212 235 257 260 256 248 254 250 248 247 244 249 250 252 258 267
111 299 305 296 102 111 123 141 143 158 168 160 157 145 156 183 170 148 152 170 183 233 283 267 225 280 333 337 328 302 306 328 329 312 295 275 261 254 252 255 256 259 260
167 149 142 133 51 134 199 222 213 187 173 161 147 138 141 149 125 106 105 102 104 75 13 19 39 24 27 31 24 20 338 312 304 304 305 303 297 283 276 271 270 274 271
172 171 167 165 182 217 203 144 128 121 123 122 121 125 132 128 122 110 87 87 87 88 70 50 52 31 15 18 17 19 8 352 349 342 316 300 296 295 295 292 282 278 275
192 184 168 145 149 132 104 94 84 80 86 96 97 100 109 104 98 96 85 84 88 85 85 81 68 52 29 22 30 31 19 6 1 348 318 297 291 294 292 286 281 279 276
110 118 131 123 116 106 103 102 92 89 87 81 75 73 77 82 83 80 69 54 54 62 66 75 69 57 44 40 36 30 18 3 350 335 314 293 283 282 287 287 289 284 277
Height
1527 1529 1531 1532 1534 1535 1535 1536 1537 1538 1539 1539 1539 1539 1539 1540 1540 1540 1540 1540 1540 1541 1541 1541 1540 1540 1540 1541 1541 1541 1541 1541 1541 1541 1542 1543 1543 1543 1543 1544 1544 1544 1544
1525 1527 1529 1530 1532 1533 1534 1534 1535 1536 1536 1537 1537 1537 1537 1537 1537 1538 1538 1538 1538 1538 1538 1538 1538 1538 1538 1538 1538 1538 1538 1538 1539 1538 1539 1540 1541 1541 1541 1541 1542 1542 1542
1523 1525 1527 1528 1529 1531 1532 1533 1533 1534 1534 1535 1535 1535 1535 1535 1535 1535 1536 1536 1536 1536 1535 1535 1535 1535 1535 1535 1535 1536 1536 1536 1536 1537 1537 1538 1538 1539 1539 1539 1540 1539 1540
1522 1524 1525 1526 1527 1529 1530 1531 1532 1532 1533 1533 1533 1533 1533 1533 1533 1533 1533 1533 1533 1533 1533 1533 1533 1533 1533 1533 1533 1533 1533 1534 1534 1534 1535 1535 1536 1536 1537 1537 1537 1538 1538
1520 1522 1524 1524 1526 1527 1528 1529 1530 1530 1531 1531 1531 1531 1531 1531 1531 1531 1531 1531 1531 1531 1531 1531 1531 1531 1531 1531 1531 1531 1531 1532 1532 1532 1533 1533 1534 1534 1534 1535 1535 1536 1537
1518 1520 1522 1523 1524 1525 1526 1527 1528 1528 1529 1529 1529 1530 1529 1530 1530 1530 1530 1530 1529 1529 1529 1529 1530 1530 1530 1530 1530 1530 1530 1530 1530 1530 1531 1531 1531 1532 1533 1533 1534 1534 1535
1516 1518 1520 1521 1522 1523 1524 1525 1526 1527 1527 1527 1528 1528 1528 1528 1528 1528 1528 1528 1528 1528 1528 1528 1529 1529 1528 1528 1528 1528 1528 1528 1529 1529 1529 1529 1529 1530 1530 1531 1532 1532 1533
1515 1516 1518 1519 1520 1521 1522 1523 1524 1525 1525 1526 1526 1526 1526 1526 1527 1527 1527 1527 1527 1527 1527 1527 1527 1527 1527 1527 1527 1526 1526 1526 1527 1527 1527 1527 1528 1528 1529 1530 1530 1531 1532
1513 1514 1515 1517 1518 1518 1519 1520 1521 1522 1523 1523 1524 1524 1525 1525 1525 1526 1526 1526 1526 1526 1526 1526 1526 1526 1526 1526 1526 1525 1525 1525 1525 1525 1526 1526 1526 1527 1527 1528 1528 1529 1529
1510 1511 1512 1514 1515 1515 1516 1517 1518 1519 1520 1521 1521 1522 1522 1523 1523 1524 1524 1524 1524 1525 1524 1524 1524 1524 1524 1524 1524 1524 1524 1524 1524 1524 1525 1525 1525 1525 1526 1526 1526 1527 1527
1507 1508 1510 1511 1512 1513 1514 1515 1516 1517 1518 1519 1519 1520 1520 1520 1521 1522 1522 1522 1523 1523 1523 1522 1522 1522 1522 1522 1523 1523 1523 1523 1523 1523 1523 1523 1523 1524 1524 1524 1525 1525 1526
1505 1506 1507 1508 1510 1511 1512 1513 1514 1515 1516 1517 1517 1517 1517 1517 1518 1519 1520 1520 1520 1521 1521 1521 1520 1520 1520 1521 1521 1521 1521 1521 1521 1521 1522 1522 1522 1522 1522 1522 1523 1523 1524
1503 1503 1504 1506 1507 1508 1509 1510 1511 1513 1514 1514 1515 1515 1515 1515 1515 1517 1517 1518 1518 1518 1519 1519 1519 1519 1519 1519 1519 1519 1519 1519 1519 1520 1520 1520 1520 1520 1520 1520 1520 1521 1521
1501 1501 1503 1503 1504 1505 1507 1508 1509 1511 1512 1512 1513 1513 1513 1513 1513 1514 1514 1515 1516 1516 1516 1517 1517 1517 1517 1517 1517 1517 1517 1517 1517 1517 1518 1518 1518 1518 1518 1518 1518 1518 1518
1498 1500 1501 1502 1502 1503 1504 1505 1506 1508 1508 1509 1510 1511 1510 1511 1511 1512 1512 1513 1513 1513 1514 1514 1514 1514 1514 1514 1514 1514 1515 1515 1515 1515 1515 1515 1515 1515 1515 1516 1516 1516 1516
1496 1498 1499 1499 1500 1501 1502 1502 1503 1505 1505 1506 1507 1508 1508 1509 1509 1509 1510 1510 1511 1511 1511 1512 1512 1512 1512 1512 1512 1512 1512 1512 1512 1512 1512 1512 1513 1513 1513 1513 1513 1513 1514
1494 1495 1496 1497 1498 1498 1499 1500 1501 1502 1502 1503 1504 1504 1505 1506 1506 1507 1507 1508 1508 1509 1509 1509 1509 1510 1509 1509 1509 1509 1509 1509 1509 1509 1509 1509 1509 1510 1510 1510 1510 1510 1511
1491 1492 1493 1494 1495 1496 1497 1497 1498 1499 1499 1499 1501 1501 1502 1503 1504 1504 1505 1506 1506 1506 1506 1506 1507 1507 1507 1507 1507 1507 1506 1506 1506 1506 1506 1506 1506 1506 1506 1506 1507 1507 1507
1490 1491 1491 1492 1493 1493 1494 1495 1496 1497 1497 1497 1498 1499 1500 1500 1501 1502 1502 1503 1503 1503 1504 1504 1504 1504 1504 1504 1504 1504 1504 1503 1503 1502 1502 1502 1502 1503 1503 1503 1503 1503 1504
1488 1488 1489 1490 1491 1491 1492 1493 1494 1495 1495 1495 1496 1496 1497 1498 1499 1499 1499 1500 1500 1501 1501 1501 1501 1501 1501 1501 1500 1500 1500 1500 1499 1499 1499 1499 1499 1499 1499 1499 1500 1500 1500
1486 1487 1487 1487 1488 1490 1490 1491 1492 1492 1493 1493 1494 1494 1495 1496 1497 1497 1497 1497 1497 1498 1498 1498 1498 1498 1498 1497 1497 1497 1496 1496 1496 1496 1496 1496 1496 1496 1496 1496 1496 1496 1497
1485 1486 1486 1487 1487 1488 1488 1489 1489 1490 1491 1491 1492 1493 1493 1494 1494 1495 1495 1495 1495 1495 1495 1495 1495 1495 1494 1494 1494 1493 1493 1493 1492 1492 1492 1492 1492 1492 1492 1492 1492 1493 1493
1484 1484 1485 1485 1485 1485 1486 1487 1488 1488 1489 1490 1490 1491 1491 1491 1491 1492 1492 1492 1492 1492 1492 1492 1492 1491 1491 1491 1490 1490 1489 1489 1489 1489 1488 1488 1488 1488 1489 1489 1489 1489 1489
1482 1483 1483 1484 1484 1485 1485 1486 1486 1487 1488 1488 1489 1489 1489 1489 1489 1490 1490 1490 1490 1489 1489 1489 1488 1488 1488 1487 1487 1486 1486 1486 1485 1485 1485 1485 1484 1484 1485 1485 1485 1485 1485
1481 1482 1482 1483 1483 1484 1484 1484 1485 1486 1486 1487 1487 1487 1488 1488 1488 1488 1488 1488 1488 1487 1487 1486 1485 1485 1485 1484 1484 1483 1482 1482 1481 1481 1481 1481 1481 1481 1481 1481 1481 1481 1481
1480 1481 1481 1481 1482 1482 1483 1483 1484 1484 1485 1485 1485 1486 1486 1486 1486 1486 1486 1486 1486 1485 1484 1484 1483 1483 1482 1481 1481 1480 1479 1478 1478 1477 1477 1477 1477 1477 1477 1477 1477 1477 1477